Theta_e
298 299 299 299 299 298 298 299 299 300 301 301 301 300 300 300 300 300 301 301 301 301 301 301 302 302 302 302 301 302 303 304 303 303 303 303 302 302 302 303 307 311 313 315 316 316 314 311 310 306 305 313 320 323 324 326 324 323 331 334 334 336 335 335 334 333 331 332 333 328 324 327 328 326 324 326 325 325 325 326 329 328 328 328 327 327 329 331
298 298 298 299 299 299 299 299 299 300 300 300 300 300 300 300 300 300 300 301 301 301 301 301 302 302 303 302 302 302 302 303 304 303 303 302 301 302 302 301 303 308 313 314 314 315 315 313 312 308 307 314 321 323 324 327 325 324 331 334 332 333 333 333 331 330 330 330 330 329 329 327 327 325 324 325 324 325 331 334 334 332 331 330 329 329 329 331
298 298 298 299 299 299 299 299 299 299 300 300 300 300 300 300 300 300 301 301 301 301 302 302 302 303 303 303 303 303 303 304 303 303 304 303 302 303 303 303 302 304 310 313 314 314 314 314 315 313 309 313 318 322 326 327 325 323 328 330 329 331 332 331 331 331 330 330 329 330 329 327 327 325 324 324 323 326 333 337 336 335 334 333 332 331 331 331
298 298 298 298 299 299 299 299 300 300 300 300 300 300 301 300 301 301 301 301 301 302 302 302 302 303 303 304 304 303 304 303 302 306 308 307 308 308 307 308 308 307 307 310 312 312 312 314 316 316 313 313 316 320 325 327 325 323 325 326 327 329 331 331 331 331 331 330 330 329 330 330 328 326 324 323 323 326 328 330 332 331 331 333 334 331 331 332
297 298 298 298 299 299 299 299 300 300 300 300 300 300 300 301 301 301 301 301 301 302 302 302 303 303 303 304 304 304 304 303 305 311 311 310 311 311 309 310 312 313 310 308 311 312 313 314 316 317 314 315 318 321 324 326 326 325 323 323 324 328 330 330 330 331 331 330 330 329 331 332 329 325 324 323 324 326 325 327 326 325 326 328 331 331 332 332
298 298 298 298 298 298 298 299 299 300 300 301 301 301 301 301 301 301 302 301 301 302 302 303 303 303 303 304 304 304 304 303 306 311 311 312 312 310 308 308 310 314 314 312 313 314 315 315 317 317 314 316 320 322 324 325 326 326 325 322 322 326 328 328 329 330 329 329 329 329 330 330 328 328 326 323 323 325 325 326 325 325 326 325 327 330 332 332
298 299 299 298 298 298 298 299 299 300 300 301 301 302 302 302 302 302 302 302 301 301 302 303 303 303 303 303 303 304 305 304 303 304 306 307 307 306 307 308 309 310 313 316 316 316 316 317 317 316 314 317 321 322 324 325 326 326 326 324 322 323 325 327 328 329 329 328 328 328 329 328 328 330 327 323 323 324 324 325 325 326 327 326 327 329 329 328
299 300 299 298 298 298 299 299 300 300 300 301 302 302 303 303 303 302 302 301 301 301 302 303 303 303 303 304 304 304 304 304 300 300 301 302 301 302 304 307 307 306 310 316 318 317 316 317 318 315 313 315 320 322 323 325 326 326 326 326 324 323 323 324 326 327 327 326 327 327 328 328 328 328 327 326 327 325 324 324 325 327 329 328 327 327 327 327
299 299 299 299 299 299 299 300 300 300 300 301 301 302 302 302 302 302 301 300 300 301 302 302 302 303 303 303 304 304 304 302 301 302 302 301 302 302 303 306 306 305 308 313 316 318 317 317 318 316 313 313 316 319 321 324 327 326 326 326 326 326 325 324 325 325 325 324 326 327 327 327 326 328 328 329 329 326 326 326 325 327 329 329 328 327 326 326
299 299 298 298 299 299 300 300 300 300 300 301 300 300 300 300 300 300 300 299 299 300 301 301 302 303 303 303 304 304 303 301 303 303 302 302 302 303 304 307 308 309 310 311 313 317 318 317 317 316 314 313 314 316 317 320 323 321 321 324 325 327 327 326 325 325 325 324 325 327 327 326 325 329 329 329 329 326 327 328 325 326 328 328 328 327 326 325
298 298 298 298 299 299 299 299 299 299 299 299 298 298 299 299 299 299 299 299 299 299 300 301 302 303 303 303 303 304 302 303 304 302 301 301 302 303 305 307 310 312 312 312 313 316 318 318 317 315 313 313 314 315 315 316 319 318 318 320 322 325 327 327 327 327 326 326 326 327 327 326 326 329 328 328 328 326 327 328 326 326 328 329 329 328 327 325
297 297 298 298 298 297 297 297 297 297 296 296 297 297 298 299 299 299 299 299 299 300 301 302 302 303 303 303 303 303 301 302 302 301 302 301 301 302 303 306 309 312 313 313 314 315 317 318 318 315 313 314 315 315 315 316 319 320 319 319 321 323 325 326 326 327 327 327 327 327 328 329 329 329 327 327 327 326 327 328 326 327 328 329 330 329 328 326
296 297 297 297 297 296 296 295 295 295 294 294 296 296 297 298 299 300 299 299 300 301 302 302 303 303 303 303 303 301 301 301 301 301 302 301 300 300 302 304 307 310 312 313 314 314 315 316 317 316 314 314 316 316 315 316 317 320 320 318 320 323 325 324 325 325 325 326 327 327 330 331 329 328 326 326 325 325 326 328 328 328 329 330 331 329 327 326
296 296 296 296 297 296 294 294 294 293 292 293 295 296 297 299 300 300 299 300 301 302 302 303 303 303 303 303 301 301 301 302 302 302 302 302 301 300 301 303 305 309 312 312 313 313 314 315 315 315 315 314 314 314 314 315 319 321 320 319 321 323 325 325 324 325 324 325 326 328 330 330 329 328 326 324 323 325 326 327 329 329 331 331 330 328 327 326
295 296 296 297 297 295 293 293 293 292 292 293 294 296 299 300 300 300 300 301 301 302 302 302 302 302 303 302 301 301 302 302 303 303 303 304 303 302 302 302 304 307 310 311 312 313 312 313 314 314 314 314 313 314 315 319 322 321 320 321 321 322 324 325 325 325 325 325 325 328 329 328 329 328 327 324 323 326 326 326 327 328 330 331 329 328 328 327
295 295 296 297 295 293 293 293 292 292 293 293 294 297 299 299 300 301 301 301 302 302 301 302 302 302 302 302 302 302 302 302 303 304 304 304 305 305 304 303 304 305 306 308 310 311 311 311 313 313 313 313 314 316 317 319 321 321 320 320 321 322 323 324 325 324 325 325 325 327 328 330 331 327 326 326 325 327 327 326 327 326 328 330 330 329 329 328
294 295 296 296 294 294 293 293 292 292 293 293 294 297 298 297 299 301 301 301 301 301 301 302 303 302 303 302 302 303 302 301 303 304 304 304 305 306 306 304 304 305 307 308 309 310 310 311 312 312 312 313 314 316 316 317 318 320 321 319 319 321 322 324 326 325 325 326 326 326 327 331 332 325 324 327 327 328 328 327 328 327 327 327 329 331 330 329
294 295 295 294 294 294 293 293 292 292 293 293 294 297 297 297 299 300 301 301 300 300 302 303 302 302 302 302 301 302 301 301 302 303 303 304 305 306 307 306 305 306 308 309 310 310 311 311 311 311 312 312 313 314 315 316 315 317 320 320 318 319 322 323 324 325 326 326 327 327 326 328 328 324 323 326 327 327 327 328 329 329 328 327 327 328 329 329
294 294 294 294 294 294 293 293 292 292 293 293 295 296 296 297 299 300 301 301 300 301 303 303 302 301 301 301 301 301 301 302 302 303 304 305 305 306 307 307 307 307 309 309 311 311 311 311 311 311 311 311 310 311 312 315 315 316 319 320 318 318 320 322 323 325 326 327 327 327 327 326 326 325 323 324 326 326 326 328 329 329 329 328 327 326 327 327
295 294 293 294 293 293 293 292 293 293 293 294 295 295 297 300 301 301 302 301 301 302 301 301 301 301 301 301 301 301 301 302 302 303 304 304 305 305 306 307 307 308 309 309 310 311 311 312 311 310 310 309 309 309 310 312 315 317 319 319 319 318 318 320 323 324 325 327 328 327 327 326 326 325 322 322 323 323 324 325 327 328 327 327 327 326 327 327
294 294 294 294 293 293 293 292 293 293 294 295 295 297 301 302 301 302 302 301 301 301 300 300 301 301 301 301 301 301 302 302 302 303 303 304 305 305 306 307 307 307 308 308 310 310 309 311 312 310 310 308 307 307 308 310 312 314 317 317 318 318 317 318 321 322 323 326 328 327 328 328 326 325 323 322 322 322 321 322 324 325 326 326 326 326 327 328
294 294 294 293 293 293 293 293 294 295 296 296 297 300 301 301 301 301 302 302 301 299 300 301 302 302 302 302 302 302 302 303 303 303 303 304 305 306 306 307 307 307 308 309 309 310 309 310 311 310 311 309 306 304 305 307 308 311 314 316 317 317 316 317 318 318 319 322 325 326 327 327 326 325 324 323 322 322 321 321 323 324 325 326 326 326 327 327
295 294 294 293 293 293 293 294 296 297 298 297 298 301 301 300 300 300 301 301 301 299 300 302 302 303 302 302 303 303 303 304 304 303 304 305 306 306 306 306 307 307 308 309 309 309 310 310 310 310 311 309 306 304 304 305 307 309 312 314 316 316 316 318 318 316 317 319 321 323 324 324 324 325 324 323 323 322 323 322 322 323 323 325 325 326 326 327
296 295 295 294 294 293 293 296 297 297 296 296 300 302 300 299 299 300 301 300 300 299 300 302 302 302 302 302 303 303 302 303 304 304 304 304 305 306 305 305 306 306 307 308 309 309 309 310 312 311 311 310 307 305 305 305 305 306 309 312 313 315 315 317 318 317 316 317 317 319 321 321 322 324 324 324 323 323 323 323 321 322 322 323 324 325 326 326
295 295 295 294 293 293 294 296 296 296 295 297 300 301 299 299 299 301 301 299 301 301 300 302 302 302 302 303 304 303 302 303 303 303 303 304 305 305 306 305 305 307 307 308 309 309 309 309 310 311 311 311 309 308 306 305 304 304 306 308 310 312 315 317 317 317 318 318 317 317 318 319 322 324 324 324 325 324 323 323 322 322 322 322 323 324 325 325
294 295 295 293 293 294 295 296 296 296 297 298 299 298 298 299 300 301 299 299 303 303 301 302 303 303 302 303 303 303 303 303 302 302 303 305 305 304 306 305 306 307 307 307 308 309 309 309 309 310 311 311 311 310 308 305 304 303 304 307 307 309 312 314 314 316 319 320 318 318 318 318 321 323 324 324 325 325 324 324 324 323 322 322 323 324 324 325
295 296 295 293 293 295 296 297 297 297 298 298 298 297 298 299 300 300 300 300 302 301 301 303 302 302 302 302 303 303 303 302 302 302 303 304 305 304 305 306 306 307 305 305 308 309 310 311 310 310 311 311 311 312 310 306 304 304 306 307 306 307 309 311 312 314 317 318 317 317 319 321 320 321 325 326 326 326 325 325 324 323 323 323 323 324 324 324
296 295 294 293 294 296 297 298 298 297 298 298 298 299 298 300 300 299 300 301 299 300 302 303 302 302 301 300 302 303 302 302 303 303 302 304 304 304 305 305 307 308 305 305 308 309 309 310 310 310 310 310 311 312 311 309 308 308 311 311 308 306 306 307 309 311 313 316 316 316 320 323 321 322 325 325 325 326 325 325 325 324 324 324 323 324 324 324
295 294 293 294 295 297 299 299 298 297 297 298 299 299 299 300 299 299 302 301 298 299 302 302 301 301 300 299 301 303 302 303 304 303 303 304 304 304 305 305 305 308 307 306 308 309 307 308 309 309 310 310 310 311 310 310 310 311 313 313 311 310 309 308 308 309 310 313 314 315 318 320 321 323 324 322 324 325 324 324 324 323 324 324 324 324 324 324
295 293 293 294 295 298 299 299 299 297 297 299 299 299 300 300 301 302 303 300 296 297 300 300 300 300 299 299 301 303 303 303 303 303 303 304 304 303 304 304 304 306 307 306 307 307 306 306 307 309 310 311 311 311 311 310 310 312 313 313 313 315 317 315 312 311 310 310 311 313 315 318 320 323 322 321 322 323 324 323 323 322 322 322 323 324 324 324
293 293 294 295 296 298 299 299 299 297 297 299 299 300 300 300 302 303 300 297 297 298 300 300 300 300 299 299 302 303 303 304 303 303 303 304 304 303 304 305 304 306 308 307 307 306 306 307 309 310 309 310 311 311 311 311 311 312 312 313 313 314 317 315 313 314 314 311 310 312 314 316 318 320 320 320 320 321 323 323 323 322 320 319 322 323 324 325
292 293 295 295 297 299 299 299 299 298 298 299 299 299 301 301 302 301 299 298 298 299 300 300 300 300 299 300 302 302 303 304 303 304 304 304 305 304 305 305 304 305 307 306 306 307 308 308 309 310 310 310 311 312 311 311 311 311 311 312 313 313 314 314 313 315 316 314 313 314 315 315 315 316 318 319 319 320 319 319 320 320 318 317 320 321 322 324
292 294 295 296 298 299 299 299 299 299 299 299 299 299 302 304 301 299 299 299 299 298 300 300 299 299 299 301 303 302 302 305 303 303 304 304 304 305 305 304 304 304 305 305 305 308 310 308 307 310 311 310 311 312 311 312 311 311 312 313 313 313 313 314 313 313 314 314 315 316 316 316 314 313 316 317 317 317 314 314 316 317 317 317 318 319 319 320
293 295 296 297 298 298 298 299 299 299 299 299 300 300 303 303 300 299 300 300 300 300 300 300 298 299 300 301 302 302 302 304 304 302 304 305 305 305 305 305 304 304 305 307 306 307 308 308 308 310 310 309 310 310 310 312 312 312 313 313 313 314 313 313 312 312 313 313 314 316 317 318 315 313 318 317 314 315 314 315 316 315 316 316 317 317 317 317
294 296 297 298 298 298 298 299 299 299 299 299 301 302 302 301 299 299 300 300 301 301 300 299 298 300 301 300 302 302 300 302 303 302 303 304 304 304 304 305 304 304 305 306 306 305 306 307 307 307 307 309 311 309 309 312 312 312 313 312 313 314 314 313 313 312 313 311 312 314 317 319 315 313 318 316 313 314 313 314 314 314 316 315 315 316 316 317
295 297 297 298 298 298 299 299 299 300 299 300 302 301 300 300 299 299 300 300 301 300 300 299 298 300 301 300 301 301 299 300 302 301 301 303 303 304 305 304 304 305 306 305 304 304 305 306 306 305 307 310 310 309 309 310 311 313 312 311 312 314 314 314 314 312 312 310 312 315 316 317 315 313 315 313 313 314 313 314 312 312 315 315 314 315 316 317
296 297 297 298 298 298 299 299 299 300 299 300 302 300 299 300 299 300 300 300 300 300 300 299 299 300 300 300 300 300 299 300 301 300 300 302 303 304 305 304 303 305 306 305 304 303 303 304 305 304 306 307 306 308 309 308 308 311 313 312 312 312 312 314 314 314 313 312 313 313 313 314 313 314 314 313 313 313 313 314 312 311 312 312 312 314 315 315
296 297 296 297 298 297 299 299 299 299 298 300 302 300 300 300 298 299 300 299 299 300 300 300 300 300 300 300 300 300 299 299 300 300 300 302 302 303 305 304 303 304 304 303 305 305 303 304 305 305 305 306 307 309 310 309 308 308 310 311 311 312 313 313 313 313 314 314 314 313 311 312 312 313 313 312 312 313 313 313 312 312 311 311 312 313 313 314
295 298 298 298 298 298 299 299 299 299 299 301 301 300 300 300 299 299 299 300 299 299 300 300 299 299 300 300 299 299 300 300 300 300 300 301 301 302 303 303 303 304 302 302 305 305 304 303 304 305 305 306 309 310 310 310 311 309 308 309 309 310 312 313 313 312 313 314 315 315 312 311 311 311 312 312 311 312 312 311 311 310 309 309 311 312 313 313
294 298 298 297 298 299 299 299 299 299 300 300 299 298 298 299 299 300 299 299 299 299 300 300 299 299 300 300 299 299 300 300 300 300 300 301 301 301 303 303 304 304 303 303 304 305 305 304 303 304 305 305 307 310 310 308 310 310 309 309 309 310 310 311 312 312 313 313 315 315 313 313 313 310 310 311 310 311 311 311 311 310 308 308 310 311 312 313
293 297 297 296 298 299 299 299 298 299 300 298 297 299 299 299 300 300 299 299 299 299 299 299 300 300 300 300 300 299 300 300 300 300 301 302 301 300 301 302 301 301 302 303 304 304 305 305 303 303 304 305 305 308 309 309 309 310 309 309 310 310 310 311 312 313 312 312 313 312 312 315 315 311 308 308 309 309 309 309 309 308 307 308 309 310 311 311
294 297 298 297 298 299 298 300 298 298 300 299 298 299 299 300 300 299 299 299 299 298 299 299 300 300 300 300 300 300 300 300 300 300 300 301 301 300 300 299 299 300 302 303 304 303 302 303 303 302 303 303 303 303 304 306 308 308 308 309 309 309 309 310 311 311 310 310 311 311 311 314 316 313 310 308 308 308 306 307 307 307 307 308 309 309 310 310
293 296 298 297 298 298 298 299 298 298 299 299 298 298 298 298 299 298 298 298 298 298 298 299 299 299 300 300 300 300 299 299 300 300 301 301 301 301 300 299 299 299 300 302 303 302 302 303 303 302 302 302 303 303 303 304 307 307 306 307 308 308 308 308 308 308 308 308 309 310 311 313 314 312 309 308 308 307 306 307 307 307 308 309 310 310 311 311
292 294 296 297 298 297 298 298 298 298 298 296 296 296 297 297 297 297 297 296 297 299 299 300 299 299 299 299 299 300 299 299 299 300 300 300 301 300 299 299 299 299 299 301 302 301 301 302 302 301 300 301 303 307 306 306 307 307 306 304 305 306 307 307 306 307 307 308 309 310 309 309 311 311 309 308 308 307 307 307 307 307 308 309 310 311 311 311
292 294 294 295 296 297 298 297 296 297 296 294 294 296 296 297 296 295 295 295 296 298 299 299 299 299 299 298 299 300 300 300 299 300 300 300 301 300 299 299 299 298 299 300 301 300 301 301 301 300 300 300 301 303 305 305 304 303 303 302 302 304 305 305 305 306 306 306 307 308 308 308 308 309 308 307 307 307 307 307 307 307 308 308 309 310 310 310
293 294 294 293 294 294 295 294 292 294 295 293 294 296 296 296 295 294 295 296 296 297 298 299 299 299 298 297 298 299 300 300 299 300 300 300 300 300 299 299 299 299 299 300 301 301 301 302 302 301 300 300 299 299 301 301 300 300 300 301 301 302 302 303 304 304 304 305 305 305 306 307 306 306 307 307 307 307 307 308 308 308 309 309 309 309 309 309
293 293 292 292 293 293 293 292 290 291 293 292 294 296 295 295 294 294 296 296 295 296 297 298 298 296 295 294 294 296 298 298 297 298 298 298 299 299 298 298 299 299 299 300 301 301 301 301 302 301 301 300 300 300 300 300 300 300 300 300 300 301 301 302 303 303 303 304 303 303 304 305 304 304 306 306 306 306 306 307 307 308 308 308 308 308 308 308
291 292 291 290 292 292 292 292 289 289 291 292 293 295 295 294 294 293 293 293 294 294 296 297 296 293 291 291 292 294 295 294 296 297 297 296 297 297 296 297 299 299 299 299 300 300 300 301 301 301 300 300 300 300 300 300 300 300 300 300 300 300 301 301 302 302 303 303 302 301 302 303 303 303 303 304 304 304 304 304 305 306 307 307 307 307 307 308
289 290 289 289 289 290 290 290 289 290 291 292 293 294 294 293 292 291 290 291 293 294 294 295 294 290 289 290 290 292 292 293 294 295 294 294 295 295 295 297 298 299 298 298 298 297 298 300 301 301 300 300 300 300 300 300 300 300 300 300 300 301 301 301 301 302 302 302 301 301 302 302 301 302 302 302 302 302 303 303 304 305 305 305 306 306 306 307
289 289 289 288 288 289 289 289 290 291 292 292 293 293 292 291 290 289 289 290 291 292 292 293 291 289 289 289 289 290 291 291 292 292 293 294 294 294 295 296 297 297 297 297 297 297 298 299 300 300 299 299 299 300 300 300 300 300 300 300 300 300 300 301 301 301 301 301 301 301 301 301 301 301 301 301 301 302 302 303 303 304 304 305 305 305 306 306
289 289 288 288 290 290 289 289 289 290 292 292 292 292 290 290 289 288 289 289 289 290 291 290 289 288 288 289 289 289 290 290 291 291 292 292 292 293 293 294 295 295 294 295 296 297 298 299 298 299 299 299 299 299 300 300 300 300 299 299 299 300 300 300 300 301 301 301 301 301 301 301 301 301 301 300 301 301 302 302 303 303 304 304 305 305 305 306
289 289 288 288 290 290 288 288 288 289 291 291 290 290 289 289 288 288 289 290 289 290 290 289 288 288 288 289 289 289 289 289 289 289 289 290 290 291 291 292 293 293 293 294 295 296 298 298 298 298 299 299 299 299 299 299 299 299 299 299 299 299 299 300 300 301 301 300 301 301 300 300 300 301 301 300 300 301 301 301 302 303 303 304 304 305 305 306
Wind_Speed
17 17 17 17 17 17 17 16 16 16 16 17 18 18 19 20 20 21 21 21 21 22 21 20 20 21 21 22 23 24 25 28 30 30 33 33 29 28 28 30 28 20 14 16 18 17 17 16 13 12 14 13 12 17 20 20 21 12 2 5 7 7 8 4 5 6 2 3 4 7 8 4 4 6 12 11 13 18 15 11 13 18 12 10 13 14 24 31
17 17 16 17 17 17 17 16 16 16 17 17 17 18 19 19 20 20 21 21 22 22 21 21 21 21 21 22 22 23 27 30 32 37 37 30 27 25 24 27 29 24 18 20 20 17 19 18 15 14 14 11 9 13 18 17 19 14 3 5 10 8 8 7 8 8 5 4 7 12 14 7 6 6 13 10 8 16 12 6 11 14 13 14 15 17 26 32
16 16 16 16 16 17 17 17 17 17 17 17 17 18 18 19 19 20 20 21 22 21 22 21 21 21 20 20 21 23 26 29 34 37 29 19 15 16 17 18 22 24 22 23 21 19 22 20 18 17 13 10 10 13 15 16 16 16 10 7 11 8 7 14 16 16 15 9 9 12 14 8 8 8 8 8 8 11 9 10 11 13 17 18 19 23 29 32
15 16 15 16 16 17 17 17 17 18 18 17 17 18 18 19 19 19 20 20 21 21 21 21 21 21 19 19 20 23 24 26 27 20 11 2 4 1 6 10 14 20 25 26 24 24 25 22 21 17 12 8 11 14 13 17 14 12 14 10 8 10 9 19 23 24 22 13 9 10 10 9 10 9 9 8 8 4 9 20 22 21 24 24 25 28 30 32
15 15 15 15 16 17 17 17 17 17 17 18 18 19 19 20 19 20 20 20 21 20 21 20 21 20 19 19 19 22 19 15 9 1 3 10 14 8 6 9 10 13 21 27 27 27 26 25 23 16 10 6 7 10 12 22 18 6 14 16 11 14 12 20 27 24 20 13 10 8 6 7 9 9 12 12 9 8 18 28 28 28 28 27 29 31 31 33
14 15 15 15 16 17 17 16 16 16 17 18 19 19 19 20 20 20 19 20 20 20 20 19 20 20 19 19 19 20 12 6 5 1 4 9 7 6 13 14 10 10 14 24 27 25 23 25 22 14 8 5 6 8 10 21 21 9 11 17 18 18 14 18 24 21 15 10 8 7 6 6 7 10 11 13 17 19 26 29 28 27 26 27 30 33 33 34
14 15 15 16 16 17 17 17 17 17 17 17 18 19 20 20 20 20 20 20 19 19 19 19 20 19 19 19 19 19 15 20 23 16 12 12 17 23 23 17 12 14 12 18 25 25 24 24 21 16 9 5 7 10 13 17 20 15 9 11 21 26 21 20 23 23 18 12 11 10 10 10 5 7 9 9 20 19 19 24 26 25 26 29 31 33 33 33
14 15 15 16 16 17 17 18 18 17 17 17 18 19 20 21 21 21 21 20 20 19 18 18 18 18 18 18 18 18 21 30 31 26 26 28 30 32 29 21 19 21 17 12 21 26 25 24 23 18 8 7 9 7 10 12 15 16 13 11 15 24 28 25 24 24 25 21 17 14 12 16 15 9 9 14 18 14 13 20 25 26 28 31 32 33 33 33
15 16 15 16 16 17 17 17 18 17 17 18 19 19 20 20 20 21 21 21 21 18 18 18 17 18 17 17 16 15 26 32 27 25 25 25 26 28 28 25 23 22 19 15 16 25 28 25 26 20 9 10 12 9 8 6 8 11 15 15 12 18 24 26 24 23 29 27 20 14 11 19 22 9 8 18 18 13 13 17 24 29 31 33 33 33 33 33
15 16 15 16 16 16 16 16 17 16 17 18 19 20 20 20 20 20 20 20 20 18 18 16 16 17 17 19 13 11 25 27 19 19 20 21 23 24 23 21 19 17 17 19 15 22 30 27 24 19 12 12 10 12 12 7 7 12 13 14 15 18 21 24 25 25 28 26 24 17 10 19 21 5 5 16 12 11 14 14 21 31 34 35 34 34 33 33
15 15 16 16 16 16 16 17 17 17 18 19 20 20 21 20 20 20 19 18 18 17 16 15 16 17 17 18 14 15 25 23 17 22 22 22 24 24 22 18 16 14 15 18 17 19 26 27 22 14 8 8 7 9 12 11 10 15 14 10 12 16 19 22 23 25 22 17 25 23 12 19 19 6 9 22 17 11 13 14 21 31 35 36 36 35 35 33
14 15 16 16 17 18 18 19 18 19 20 21 21 20 20 20 19 19 18 18 18 16 14 15 15 16 18 20 24 25 27 25 24 28 25 24 25 24 22 19 18 17 15 14 14 15 18 24 23 18 11 5 4 4 7 11 8 11 10 5 9 9 12 19 19 22 19 11 21 21 10 15 15 12 19 30 29 18 13 15 21 29 34 37 37 36 36 34
15 16 16 17 19 19 19 19 19 21 21 22 21 20 20 19 18 17 17 17 16 14 13 14 15 17 16 20 28 28 26 27 27 26 24 23 25 25 22 20 19 19 18 14 14 14 13 17 20 24 21 8 5 6 9 11 7 7 6 3 6 6 8 17 17 18 16 11 19 18 7 13 13 19 29 35 35 23 16 17 22 28 32 36 36 36 35 33
15 15 17 18 19 19 19 19 20 22 22 22 21 20 19 17 16 16 16 16 14 13 12 13 15 16 15 22 30 27 22 22 23 21 18 17 21 24 22 19 19 19 18 17 16 16 14 10 12 21 22 14 11 12 13 9 4 2 4 3 4 5 7 13 14 13 12 11 22 20 8 13 10 18 33 40 38 27 21 19 20 25 29 33 35 34 33 32
15 16 18 19 20 20 19 20 21 22 23 22 21 20 17 16 16 15 15 15 13 12 13 14 16 16 15 23 27 19 14 16 17 15 13 13 16 20 20 17 19 19 18 19 18 18 17 8 8 14 15 14 13 9 7 4 3 2 5 6 5 8 8 8 11 13 12 10 21 19 8 9 7 14 31 40 40 29 24 23 21 22 25 30 33 33 32 30
15 17 19 19 21 20 21 21 20 22 23 23 22 19 16 17 16 14 15 14 12 14 16 15 15 12 10 16 19 12 10 15 15 13 12 13 16 19 19 17 18 18 18 20 17 17 17 12 10 13 12 8 6 3 2 3 4 3 6 8 8 10 8 5 9 14 15 9 13 16 8 4 4 11 26 36 39 30 22 23 22 21 24 27 31 33 32 30
16 17 19 19 20 19 20 20 21 23 23 24 23 19 20 19 15 14 13 10 14 20 19 14 12 11 11 13 15 12 12 18 17 16 15 14 15 17 17 17 18 17 16 18 17 15 13 11 8 8 10 6 4 4 4 4 5 4 5 8 10 12 10 7 7 11 17 12 10 14 11 7 3 7 20 29 34 31 25 24 23 21 21 25 30 32 33 32
17 18 19 19 19 19 20 20 22 23 24 26 23 22 21 18 15 11 5 11 21 20 11 7 6 6 10 10 13 16 20 23 22 20 18 15 14 15 14 15 16 14 13 12 13 12 8 7 4 3 5 5 5 6 7 8 9 7 7 8 10 11 11 12 7 6 13 15 13 12 11 11 5 4 14 23 28 27 24 27 30 30 25 23 28 32 34 34
18 19 19 19 19 20 20 21 22 22 25 25 23 23 19 17 14 3 4 21 23 9 4 9 7 5 13 21 25 27 27 26 23 20 17 14 12 14 14 14 14 13 9 5 5 7 7 5 2 3 5 6 8 9 11 10 8 7 5 4 6 9 10 9 6 4 8 11 12 13 13 12 9 6 9 18 25 24 21 24 29 36 34 27 28 32 35 36
18 19 19 19 20 20 20 22 23 23 24 23 24 24 18 20 12 0 15 26 15 6 13 19 18 18 24 30 31 28 26 23 21 20 17 17 15 14 14 13 12 10 6 4 4 3 5 4 2 5 8 12 15 15 14 11 7 6 3 3 3 4 6 4 3 5 6 8 9 13 16 14 12 9 8 15 21 18 17 19 24 31 34 32 32 34 36 38
19 18 19 20 20 20 20 22 23 22 19 17 21 18 15 18 9 7 23 20 13 20 22 20 19 21 23 24 24 23 24 22 22 22 18 18 17 12 9 8 5 5 6 7 6 4 1 3 4 7 8 9 11 13 14 13 11 9 4 3 5 3 4 3 4 5 5 7 8 11 16 17 15 11 9 14 14 12 16 17 20 26 29 32 34 34 37 38
20 19 19 19 20 20 21 23 23 18 13 11 14 13 12 14 10 12 17 12 21 28 18 15 16 16 19 18 16 16 15 15 19 24 18 14 13 7 5 5 4 4 5 5 5 5 3 5 7 7 4 3 3 5 9 12 12 10 4 3 5 3 3 5 4 4 2 4 6 8 12 14 14 12 12 14 12 15 22 23 25 28 28 30 31 32 35 36
20 20 20 20 19 20 22 23 18 12 10 9 8 9 10 13 13 15 13 9 18 20 12 13 13 14 19 16 14 14 9 9 12 18 14 9 9 7 6 4 5 4 3 5 6 6 5 5 7 7 3 1 3 4 6 9 8 8 5 4 6 4 1 2 2 3 3 4 5 5 8 10 10 11 11 16 19 21 25 28 31 33 32 33 33 33 34 35
20 20 21 22 21 21 22 19 14 11 10 6 3 5 8 11 12 15 13 6 8 11 11 11 11 13 16 16 16 14 9 7 8 13 12 8 8 6 5 4 4 3 4 8 8 8 8 3 2 0 2 2 3 4 5 6 6 7 8 7 7 4 3 4 3 4 5 5 7 6 6 7 7 9 9 13 20 23 24 27 27 30 33 34 33 32 33 36
20 20 20 22 22 23 24 16 12 13 8 1 2 6 7 9 11 12 11 3 4 9 10 10 10 12 16 17 17 14 9 5 7 15 17 14 11 5 3 3 4 3 6 8 8 7 10 8 1 2 1 1 0 4 5 6 5 6 8 10 10 6 4 6 5 5 4 4 6 7 9 8 6 10 10 10 13 17 20 21 21 25 30 31 31 31 33 35
21 20 20 20 19 23 23 15 12 12 5 2 5 7 5 7 9 10 6 3 2 7 8 11 9 10 17 18 20 17 5 3 11 17 17 13 11 5 2 1 2 3 5 5 4 4 4 5 7 4 3 1 2 4 5 7 5 5 6 10 11 8 6 8 7 3 1 3 3 3 6 9 6 9 10 10 12 15 17 16 18 24 27 28 32 33 33 34
21 20 19 17 17 19 20 16 14 11 5 4 7 7 5 5 8 8 4 4 3 4 5 8 8 10 17 20 22 13 2 9 16 12 11 10 8 5 3 2 2 2 1 1 0 1 1 5 8 7 6 3 1 4 3 4 6 4 2 6 10 10 10 10 7 4 3 4 7 4 1 5 8 7 8 10 12 14 15 14 15 21 27 29 33 36 35 35
21 20 17 15 14 14 15 15 14 11 8 8 8 8 6 5 6 4 3 4 3 4 3 6 11 15 20 24 19 7 5 11 8 6 13 12 6 4 2 3 3 2 1 1 2 1 3 5 6 6 6 4 4 6 4 2 3 1 4 2 7 10 12 11 7 6 5 4 8 5 3 3 7 5 6 10 13 14 15 17 16 19 26 30 32 35 37 37
22 19 14 12 11 10 11 13 13 10 8 8 9 9 7 5 4 2 5 2 3 4 4 8 14 18 23 23 13 5 6 5 1 9 16 9 4 4 3 3 3 1 1 1 2 2 1 1 1 2 4 4 3 6 6 6 5 3 6 6 4 5 7 8 7 6 7 6 8 8 5 4 6 4 5 7 11 14 14 15 15 18 27 31 30 32 34 36
21 15 10 10 10 7 7 9 11 9 7 8 9 9 6 4 1 4 5 1 2 5 7 10 13 17 20 15 6 6 5 3 6 12 12 6 5 4 2 4 3 0 1 1 1 4 5 2 1 2 4 2 1 2 5 8 6 4 7 6 3 2 1 1 2 4 6 8 10 13 10 6 5 4 6 5 7 10 12 11 12 15 22 27 29 31 33 34
19 10 5 7 9 8 8 9 9 7 7 8 8 7 4 2 3 6 2 2 1 6 8 8 10 14 15 8 3 7 6 5 8 9 7 6 4 2 1 2 1 2 3 2 1 4 5 2 1 4 8 6 3 1 1 2 3 2 2 3 3 3 1 2 2 2 5 9 9 12 12 10 8 5 5 5 6 9 10 10 12 11 14 22 27 31 34 35
15 5 1 5 7 8 10 10 8 6 6 6 6 6 2 3 4 2 2 4 2 3 6 6 9 11 10 5 4 7 5 4 7 5 3 4 4 3 2 1 2 2 3 3 3 4 3 3 2 1 5 8 4 2 2 2 2 4 3 2 1 2 3 2 3 2 5 8 5 6 9 9 10 8 6 7 7 7 8 10 12 10 12 20 25 28 32 33
10 2 3 5 5 5 8 10 8 6 5 6 6 5 4 5 2 1 2 4 1 4 5 6 10 10 7 5 5 6 4 3 6 7 4 3 4 4 3 2 2 2 1 2 3 3 3 4 1 2 1 5 6 4 2 1 3 4 4 3 3 4 4 5 5 4 6 7 3 4 5 6 8 8 10 12 11 10 10 11 14 15 18 22 24 26 27 29
7 2 4 5 4 5 7 8 7 5 4 5 5 4 6 4 2 1 2 2 3 4 4 5 9 9 4 3 3 5 4 3 6 8 6 4 5 4 4 4 3 2 0 1 2 1 2 4 2 1 2 3 6 5 4 4 4 4 3 2 3 2 3 4 5 5 7 7 3 3 4 6 6 5 8 13 15 15 16 17 19 20 21 22 23 25 27 29
6 3 4 5 6 6 7 7 6 4 4 4 4 5 5 1 3 1 1 4 2 3 5 6 6 5 5 3 3 4 4 3 6 7 5 5 4 3 4 4 4 3 1 1 2 1 1 2 4 4 2 4 4 4 1 4 3 3 3 2 4 4 2 2 4 5 5 5 3 3 4 5 5 5 4 4 8 14 17 19 19 19 21 23 24 27 30 32
5 3 4 5 7 7 8 7 5 4 4 4 5 4 2 3 3 2 1 3 2 3 6 6 4 3 5 4 3 5 4 2 5 5 4 4 3 3 3 3 4 3 2 1 2 2 2 3 6 7 4 4 3 3 2 1 1 1 4 2 2 2 4 2 5 3 4 5 3 4 5 5 6 7 5 2 3 7 11 12 14 18 23 25 26 29 33 35
2 2 4 6 7 7 7 6 5 5 5 4 5 2 1 2 3 2 1 4 4 4 3 3 3 3 4 4 3 7 6 4 4 4 5 4 3 3 3 3 4 3 1 0 1 1 1 4 6 4 4 5 4 3 3 4 3 1 2 1 2 3 3 1 4 2 3 5 3 7 9 8 7 6 5 7 6 5 7 8 10 15 20 21 24 30 34 35
2 2 5 8 8 7 7 6 5 5 4 4 4 2 0 1 2 1 3 5 4 3 2 1 2 2 2 3 3 6 6 4 5 5 4 3 2 2 3 3 5 5 4 2 1 1 1 3 5 1 2 6 4 3 3 6 4 3 0 1 2 1 1 2 2 3 4 4 3 7 9 8 8 6 5 10 12 10 10 9 9 11 14 19 26 32 34 35
3 2 5 9 9 8 7 5 4 3 3 4 3 1 1 1 4 3 6 7 3 1 1 2 1 2 2 2 3 4 4 3 4 4 2 2 3 3 2 1 3 4 6 4 2 1 1 1 4 3 2 4 3 2 1 4 2 1 3 2 1 1 2 2 2 2 2 4 4 5 6 6 7 7 7 9 11 12 12 10 8 9 14 20 27 31 35 38
3 1 4 8 8 7 7 5 3 3 3 2 1 1 1 1 4 5 8 8 2 0 2 2 0 2 2 2 3 3 1 3 4 2 1 1 3 3 1 0 2 6 7 6 2 1 1 1 3 4 5 3 2 1 3 1 1 1 2 3 2 1 1 1 2 2 2 3 3 3 4 3 3 4 7 9 9 9 10 10 9 10 16 22 25 27 32 36
4 2 4 8 7 5 6 4 2 3 2 1 1 1 2 2 3 5 9 8 4 3 3 3 1 1 2 3 3 2 2 3 2 1 2 2 1 2 3 7 8 7 7 6 3 1 1 1 2 4 4 2 4 5 4 4 4 2 2 2 2 3 4 4 3 3 2 3 4 5 6 5 4 3 2 4 6 6 6 8 9 12 19 25 27 30 32 35
7 2 4 8 5 4 5 2 2 2 2 1 1 2 4 4 3 4 6 6 4 3 3 2 2 2 2 2 2 2 2 3 3 1 2 3 2 3 6 14 15 10 6 4 3 4 2 1 2 4 4 5 10 9 4 5 4 1 1 1 1 1 2 3 4 2 2 3 4 5 7 6 5 4 4 6 6 7 9 8 7 13 18 19 20 22 24 29
7 3 5 7 5 5 5 2 3 2 1 4 4 3 5 4 2 3 4 5 5 3 2 1 2 2 2 2 1 2 2 2 3 2 1 3 3 4 10 16 15 11 7 3 3 6 4 1 2 4 4 5 9 7 2 1 2 1 1 1 1 0 1 1 3 3 3 4 4 4 4 4 4 6 7 8 10 12 13 12 10 14 21 21 21 22 23 24
7 4 5 6 6 6 5 1 2 2 3 6 5 5 7 4 1 3 4 5 4 2 1 2 2 2 2 2 1 2 3 1 1 3 3 2 2 7 13 16 13 7 3 3 3 4 3 1 2 5 6 6 7 6 6 5 2 1 2 2 1 2 1 1 3 3 3 3 2 2 4 4 4 7 9 12 15 15 17 19 17 15 16 19 22 25 27 27
6 2 4 6 5 7 6 4 2 1 2 5 4 5 5 3 4 9 8 6 5 3 1 4 6 4 2 2 2 3 3 2 2 3 3 2 3 7 10 13 15 9 8 12 8 1 1 2 1 1 3 4 5 4 2 4 3 2 3 4 4 3 3 2 2 3 3 3 3 2 4 8 10 10 10 12 14 14 18 25 26 20 15 15 20 26 28 29
4 1 4 6 6 8 9 8 8 3 1 4 3 3 3 2 5 12 9 4 7 9 4 5 7 5 3 5 5 4 4 3 3 2 4 4 3 3 7 14 16 13 17 20 10 2 1 1 3 4 6 7 7 8 5 4 6 7 8 9 7 6 4 3 2 3 4 5 7 5 5 11 17 16 9 8 10 12 14 19 23 24 21 18 21 27 30 30
4 1 1 3 4 6 6 9 11 6 2 3 2 1 3 3 4 7 7 4 10 12 5 3 3 5 5 8 6 5 5 5 5 4 5 6 4 4 10 16 15 13 14 13 5 2 1 2 4 7 9 11 12 13 10 7 9 11 12 12 12 10 7 4 5 7 4 4 7 8 7 10 17 17 10 7 11 13 12 14 19 26 30 31 29 28 31 34
3 2 2 2 1 1 1 6 9 6 4 2 1 1 3 3 3 4 5 6 10 10 3 2 5 7 6 7 4 5 7 8 8 4 4 7 7 7 10 10 10 8 7 6 4 3 2 3 4 6 10 12 12 13 11 8 9 11 11 13 13 12 10 8 10 12 8 5 9 12 12 13 16 18 14 11 11 13 16 21 25 28 33 38 36 31 31 35
3 2 2 2 0 2 2 5 7 5 3 2 1 2 2 3 4 2 3 5 6 4 2 2 5 7 7 5 2 4 5 5 6 4 4 8 8 8 9 7 5 5 7 6 5 2 1 3 3 4 9 11 10 11 10 8 9 11 12 14 14 14 13 13 14 15 13 11 13 15 17 15 14 17 18 17 18 20 22 26 28 29 32 37 39 36 35 36
4 1 1 1 0 1 2 4 4 2 3 2 1 1 3 3 3 2 3 3 3 3 2 1 5 8 7 5 3 4 6 5 7 7 7 8 7 6 6 4 3 5 7 6 5 2 2 3 4 5 8 10 9 8 9 8 9 12 15 15 14 15 15 14 14 13 11 11 13 16 17 14 13 16 21 24 24 21 20 22 25 29 32 34 35 37 39 40
3 2 3 3 1 2 3 3 3 1 2 2 1 1 3 2 2 5 4 6 5 2 1 1 6 8 5 5 6 8 9 7 8 12 12 11 11 10 8 7 7 9 9 6 5 3 2 3 5 4 6 9 7 7 11 10 11 16 19 19 18 16 13 11 9 8 8 11 14 14 12 11 12 14 17 20 17 13 12 17 23 27 31 30 31 34 39 42
2 2 2 3 2 2 3 3 3 2 0 1 1 1 1 2 3 5 3 3 2 2 1 4 8 6 4 7 9 9 11 14 17 22 23 22 23 23 22 22 20 15 10 7 5 4 4 4 4 3 6 8 5 7 9 7 9 14 14 13 15 13 10 9 9 10 12 12 11 10 10 11 13 13 13 15 14 10 10 16 22 26 29 30 31 33 36 40
Wind_Direction
346 345 346 346 345 344 341 338 335 332 331 329 327 326 325 325 323 322 321 321 320 319 319 318 317 317 316 313 309 307 304 298 296 290 280 275 274 270 267 260 256 254 255 264 271 271 266 260 259 260 256 244 241 235 223 218 210 202 169 207 221 220 216 186 191 215 241 297 296 294 295 243 220 204 184 179 166 150 153 163 161 181 191 184 190 187 174 168
345 345 346 345 347 346 343 340 337 335 332 330 329 327 325 325 324 324 323 321 320 320 320 318 316 316 316 313 310 306 300 298 296 290 287 286 280 274 273 269 261 250 249 260 261 267 270 269 270 270 265 249 241 233 223 218 203 196 177 209 224 214 208 205 216 243 253 291 307 304 307 284 244 223 171 163 162 147 139 141 155 169 171 176 184 179 174 170
344 344 343 344 345 344 343 342 341 339 336 334 332 330 329 328 327 326 324 322 321 320 321 318 317 315 315 315 311 303 300 303 301 298 302 296 278 271 272 277 270 253 246 255 257 263 270 273 276 275 277 260 239 234 220 209 202 201 196 214 227 206 210 220 225 238 241 270 304 296 300 290 277 261 196 173 170 164 157 159 160 163 168 176 178 175 174 173
345 343 341 344 346 345 347 347 346 343 341 339 335 334 332 330 329 325 323 321 319 319 319 318 316 314 314 315 309 302 306 310 304 306 318 254 135 115 287 294 282 260 247 250 255 259 266 266 267 272 276 261 239 242 228 206 200 197 203 218 215 193 218 225 223 233 240 253 268 283 302 301 304 281 236 179 149 203 201 180 182 182 176 173 170 174 176 176
348 346 343 345 347 347 349 350 348 346 345 343 339 336 332 331 327 324 322 319 318 316 316 316 314 313 312 311 306 304 311 322 311 298 133 137 115 86 346 320 299 276 248 244 249 251 256 254 257 265 258 247 232 242 238 215 207 205 217 222 208 192 218 229 224 231 235 230 241 278 305 301 321 292 237 193 167 209 208 196 194 191 185 178 174 176 178 180
352 351 348 349 349 348 348 349 348 347 346 343 340 336 333 330 325 321 319 316 315 312 312 312 312 311 308 306 302 301 296 284 276 188 143 132 106 335 318 313 310 311 257 236 240 239 239 243 245 242 228 229 219 223 241 223 214 230 234 224 219 211 218 228 227 233 231 215 224 249 268 292 325 300 265 214 206 209 207 204 197 197 195 188 180 178 181 184
355 355 353 352 351 350 350 350 349 348 343 340 339 336 334 330 324 319 315 313 311 310 312 309 311 310 305 301 296 296 271 257 271 279 278 281 294 297 299 298 300 313 288 236 229 223 223 231 231 223 219 230 223 221 241 239 227 232 239 219 219 222 224 225 226 231 235 236 241 248 267 284 274 283 304 248 228 224 218 211 200 199 195 187 183 182 187 189
356 356 355 353 352 351 351 349 348 345 341 338 336 333 331 328 324 319 313 312 312 313 312 310 312 308 302 299 298 297 273 269 281 287 287 286 286 288 288 287 292 302 302 262 225 216 218 222 223 220 217 227 226 223 233 246 243 235 235 228 219 225 228 227 226 227 235 243 251 261 267 268 260 258 298 282 260 243 221 214 205 197 189 187 188 188 191 192
356 355 353 352 351 350 348 346 344 341 339 335 331 327 325 323 322 319 316 315 315 314 311 311 310 303 298 296 301 293 276 281 291 293 293 288 285 286 286 289 294 296 296 287 243 220 216 217 223 219 221 245 245 249 236 228 241 238 235 235 225 226 229 227 225 221 228 235 239 256 262 257 263 269 277 270 268 254 226 214 207 197 189 191 192 192 193 194
356 353 349 347 346 345 343 340 337 336 336 331 327 326 325 325 324 322 320 318 317 314 311 311 307 299 295 291 292 275 279 291 301 303 301 289 287 286 285 290 292 287 282 286 269 231 218 218 223 218 235 261 256 246 238 226 249 269 264 255 242 231 227 223 224 220 222 226 218 225 254 255 259 269 268 260 264 261 233 208 201 198 194 195 196 196 197 197
351 349 345 340 338 336 333 332 332 332 332 330 327 330 332 330 329 326 322 321 319 316 311 309 303 293 292 287 263 254 279 293 303 307 301 287 286 282 281 286 281 273 272 279 275 244 223 222 220 211 228 246 254 253 244 240 255 275 277 285 268 241 230 221 222 220 217 222 210 206 236 255 256 246 248 254 258 265 231 197 191 196 197 197 197 197 199 201
345 343 340 335 331 327 325 327 329 332 333 329 326 331 336 332 330 326 320 320 319 318 312 306 301 291 294 281 258 262 283 292 297 297 290 283 280 277 277 278 277 269 263 273 273 254 231 227 221 210 213 224 268 268 256 256 271 289 276 281 280 261 240 224 220 216 208 222 209 196 222 245 240 236 244 250 254 262 239 201 190 196 198 197 197 198 200 203
339 337 335 332 330 324 321 324 331 336 333 327 326 331 335 332 328 322 316 317 319 320 314 305 299 294 292 275 268 281 296 296 294 291 285 280 274 272 270 266 274 271 261 263 263 257 237 230 227 220 223 235 268 271 298 297 296 293 261 231 262 275 252 226 221 210 201 217 198 179 214 236 223 228 234 244 249 249 234 208 192 195 198 198 198 199 203 205
335 335 331 331 331 326 324 328 335 337 331 328 330 332 334 332 325 320 317 318 320 320 312 304 299 297 284 273 283 298 304 300 296 298 299 289 275 270 265 259 266 269 263 256 254 256 238 220 232 230 230 236 254 285 311 312 290 253 215 209 229 243 244 224 219 200 197 210 183 173 230 235 213 218 224 238 245 233 218 214 200 195 195 197 199 201 205 208
335 335 332 333 330 328 329 333 337 334 330 331 332 332 335 333 323 321 321 319 323 323 316 307 297 296 286 281 296 309 312 309 302 310 319 304 288 273 263 259 259 262 266 260 258 258 243 228 239 225 222 228 238 276 310 306 281 201 202 216 208 227 243 225 219 202 203 206 175 176 240 238 213 209 209 225 236 226 213 213 209 204 199 197 200 202 205 209
333 334 335 335 331 330 331 334 338 332 330 332 332 331 333 330 322 320 319 318 329 331 322 309 297 298 290 288 305 316 326 326 316 318 317 301 295 283 274 268 260 259 265 267 269 268 254 255 255 216 199 201 193 202 266 294 278 230 214 219 207 221 236 222 220 210 208 207 180 193 228 224 221 213 202 210 220 219 217 213 206 209 209 204 202 204 207 208
332 334 336 335 331 331 332 336 337 330 329 333 330 329 333 331 323 315 312 321 335 330 319 303 296 295 277 283 300 300 319 328 321 317 311 298 292 292 289 272 263 264 269 269 269 275 266 252 248 209 195 186 145 156 208 235 230 230 217 219 221 220 226 221 213 210 208 211 207 212 225 223 239 221 203 205 211 213 218 221 220 222 219 215 212 209 211 211
332 335 335 333 332 333 337 338 333 328 329 332 328 328 332 328 325 320 318 340 336 331 322 303 314 306 275 284 298 292 305 313 311 311 306 297 285 286 290 269 262 268 275 276 262 259 250 230 218 182 184 182 177 172 196 214 206 210 205 211 225 219 224 224 215 210 204 209 217 218 228 232 251 254 207 205 208 208 212 218 229 236 232 225 221 217 216 216
333 334 333 332 334 335 338 336 331 327 326 329 329 329 331 333 341 11 359 341 339 345 327 303 301 279 275 287 293 293 299 305 305 309 306 302 291 280 281 266 256 257 262 279 253 222 195 199 192 174 182 185 196 194 205 217 209 218 225 224 232 226 232 226 224 239 196 205 222 221 234 233 227 241 221 209 206 205 208 207 215 230 235 233 232 225 220 221
334 334 333 331 333 335 336 335 332 327 325 330 335 338 349 357 6 39 331 338 342 323 302 303 295 275 278 290 298 299 300 304 301 300 301 301 301 293 278 254 243 246 240 232 246 222 178 203 213 198 202 194 196 199 204 219 241 269 311 338 302 261 253 222 209 240 191 197 222 219 234 239 223 221 224 219 211 204 206 203 204 219 227 227 230 228 222 223
334 333 332 331 332 333 334 335 331 326 326 333 342 359 19 11 10 313 329 336 330 320 309 314 311 288 293 304 312 310 299 299 296 292 296 294 293 295 267 231 216 232 230 229 253 293 301 228 231 220 224 214 206 204 202 211 234 260 292 314 308 278 265 258 226 244 202 204 225 216 227 238 229 217 214 221 219 211 207 205 209 215 219 220 222 225 223 223
333 332 333 334 333 335 338 338 334 331 333 338 352 24 33 9 356 327 332 317 315 326 322 328 330 314 326 330 331 328 295 286 295 296 301 293 277 262 237 215 197 216 212 204 242 272 275 262 254 240 251 308 281 222 204 213 223 235 250 277 277 256 283 293 252 246 216 208 229 218 225 237 231 218 213 216 218 220 215 211 214 217 220 222 221 222 223 222
334 335 337 337 337 338 342 342 342 345 337 337 4 30 17 357 350 338 337 304 306 328 342 339 335 332 345 347 342 335 293 265 292 304 308 287 260 242 239 226 215 226 190 183 213 231 240 261 256 241 238 360 278 229 195 216 228 228 229 237 256 260 276 283 260 256 254 232 230 226 235 243 235 224 218 218 222 224 222 218 219 221 223 226 226 224 223 223
337 339 337 339 341 340 348 350 350 348 328 322 10 13 354 349 348 340 335 303 288 323 344 341 338 341 348 344 338 331 302 273 282 310 317 283 260 250 239 215 215 235 204 197 205 223 234 245 47 106 209 171 230 239 193 202 225 225 223 228 239 245 237 249 314 340 318 275 248 246 264 258 231 225 222 217 223 227 226 223 221 222 225 229 231 230 228 226
336 340 337 344 347 342 351 358 352 347 338 319 311 310 333 344 344 341 339 335 280 313 336 343 342 351 352 344 339 331 307 281 291 317 318 284 253 249 247 210 211 232 221 201 190 225 242 234 228 40 59 96 32 256 217 193 216 233 224 225 233 234 248 272 313 356 347 286 244 230 249 257 220 218 224 212 218 225 225 225 221 221 224 228 231 234 234 231
333 338 338 348 352 343 349 358 357 357 11 61 325 315 328 334 339 339 344 46 335 308 334 348 346 348 349 342 336 331 302 287 313 317 320 289 246 240 298 249 220 237 221 198 185 237 252 206 206 212 219 281 4 285 238 184 196 244 213 205 223 234 243 266 291 315 243 256 266 235 245 260 239 217 221 212 217 223 222 225 224 221 223 225 229 233 235 234
331 335 338 350 355 347 348 352 356 1 7 1 360 4 345 333 346 333 345 45 352 308 323 339 344 341 341 337 333 335 297 314 319 318 333 314 263 248 284 290 279 277 216 114 142 238 147 156 183 199 207 211 235 261 253 175 195 245 232 183 200 221 231 241 258 252 233 275 293 296 173 261 258 225 213 206 213 224 221 222 225 223 223 223 227 232 235 237
328 330 336 351 359 354 349 347 348 354 353 350 7 12 343 337 347 332 66 70 322 329 334 326 338 336 338 338 332 323 293 315 325 338 339 325 272 228 238 249 240 261 65 154 232 360 102 151 170 178 190 199 216 222 237 293 253 283 348 264 200 211 222 226 238 250 252 271 278 272 139 231 268 236 212 209 209 219 220 219 220 221 224 223 225 229 233 237
326 328 336 351 7 5 353 348 344 346 348 349 359 354 334 333 336 17 74 79 286 354 355 334 340 336 340 344 336 316 306 307 306 321 331 331 267 227 220 280 271 267 7 189 238 313 30 129 137 163 191 205 221 214 218 248 267 328 347 315 244 218 220 215 217 235 252 250 248 250 214 229 267 226 207 220 213 216 217 218 220 217 221 225 225 227 231 233
325 327 332 348 9 13 1 354 343 343 348 348 349 342 334 330 357 65 45 298 255 352 339 337 338 333 343 351 338 333 331 289 306 319 332 347 303 262 226 290 293 203 324 351 251 269 272 280 290 210 197 184 114 191 216 224 237 331 348 323 310 330 346 242 207 196 235 248 237 238 231 228 258 216 194 216 211 212 217 217 221 218 218 223 225 227 229 232
327 323 330 352 4 6 7 4 351 347 348 346 342 336 345 3 62 86 46 280 267 338 339 341 332 334 345 354 323 331 338 305 318 337 344 345 340 351 28 311 324 22 354 357 309 276 280 281 234 203 179 150 100 70 278 221 185 115 358 323 320 294 307 7 348 174 220 243 230 224 224 222 238 227 196 227 221 214 219 216 218 217 212 218 222 225 229 232
330 319 22 15 11 6 358 357 0 3 353 351 343 332 26 43 29 111 270 322 344 320 331 326 323 333 334 337 334 327 332 315 325 353 347 334 356 357 360 29 43 12 349 347 334 312 281 235 242 226 171 162 140 104 55 48 125 159 197 240 196 216 228 218 233 223 229 244 224 200 214 225 242 244 224 246 254 233 227 221 218 218 214 219 222 224 228 231
337 350 65 32 22 9 352 351 1 13 9 1 337 331 70 73 21 214 288 332 303 284 308 310 316 323 326 349 348 327 332 324 336 350 335 346 12 350 335 354 53 55 319 320 342 343 332 305 295 57 265 196 165 154 178 153 166 178 186 214 192 173 206 221 220 233 237 239 212 160 199 236 259 246 207 216 236 235 235 236 228 225 228 230 232 233 235 237
347 52 63 40 24 6 357 359 6 23 22 357 339 11 66 81 273 348 357 278 249 294 307 310 316 322 352 18 324 333 348 312 343 356 343 2 17 357 352 352 19 53 81 334 352 21 16 324 263 127 323 224 190 206 206 142 151 189 158 182 238 214 215 221 206 221 238 243 235 186 197 212 232 234 197 204 216 219 226 235 236 236 239 242 245 246 247 247
358 56 66 45 31 15 6 10 18 34 17 348 9 55 78 157 252 334 327 263 261 317 309 315 327 337 353 336 306 5 31 316 340 356 344 360 8 341 349 344 347 6 349 345 339 345 59 281 276 308 305 196 215 261 209 127 162 204 128 131 236 219 166 256 231 202 220 252 259 225 226 221 242 284 275 217 202 206 215 221 228 237 242 245 247 246 247 248
6 62 77 47 31 22 16 19 38 44 17 17 53 63 115 199 213 182 257 297 306 317 316 325 349 4 340 328 326 353 10 326 335 349 340 346 352 342 347 332 334 357 18 31 9 9 9 296 300 322 311 214 238 328 19 148 258 160 142 178 254 145 127 252 267 199 199 246 233 201 227 249 274 280 272 245 193 213 222 218 216 226 232 237 241 241 243 245
25 114 80 44 23 20 27 37 63 59 27 45 80 71 254 209 194 188 339 341 316 318 351 348 345 11 341 321 323 336 344 343 341 354 350 346 340 334 348 349 351 354 313 145 69 57 15 301 296 314 318 290 295 335 320 286 303 72 157 206 20 52 105 206 273 256 230 247 218 204 216 221 238 248 224 217 231 254 255 235 223 228 230 235 240 241 242 243
36 110 49 26 15 20 39 54 74 76 47 51 71 58 88 260 277 286 354 343 319 332 29 332 309 48 13 319 304 324 340 354 360 358 346 340 330 343 16 356 352 350 301 295 41 226 211 305 299 304 304 303 338 16 307 280 244 191 235 23 86 12 263 175 218 252 247 250 236 221 221 213 218 225 211 213 220 233 240 230 224 230 232 234 238 242 244 244
7 69 35 23 28 41 53 63 82 79 60 65 61 11 153 285 306 335 353 336 314 9 353 252 262 24 11 310 277 305 336 351 350 353 348 343 335 357 42 300 315 345 310 307 17 289 271 316 287 325 348 316 360 43 317 307 281 194 3 343 158 198 250 199 218 245 232 246 252 226 220 219 219 219 217 220 222 227 234 233 229 228 229 231 235 239 243 244
359 78 43 24 33 53 60 65 73 62 65 98 145 241 261 302 298 324 340 331 299 210 280 243 283 354 306 278 271 272 328 327 328 336 276 306 328 323 3 130 326 334 319 319 346 324 17 57 257 314 357 1 344 201 171 175 305 356 346 303 272 262 286 313 274 234 201 249 272 257 241 251 251 223 214 227 235 231 232 237 238 240 241 241 242 244 245 246
30 84 36 21 29 51 58 62 47 58 91 137 172 225 295 321 294 311 328 326 296 255 264 259 264 238 233 277 282 254 303 314 315 316 262 279 340 302 357 23 2 332 329 337 345 22 31 340 259 302 342 345 260 241 196 193 208 205 229 260 296 282 280 290 263 218 207 239 257 270 267 262 264 269 258 255 263 259 253 250 247 251 251 249 252 253 254 255
44 88 33 29 37 30 35 44 351 52 116 37 345 284 308 326 315 317 334 340 321 271 257 264 253 232 227 247 269 293 332 312 279 270 259 266 244 240 323 360 3 350 347 327 312 3 16 329 306 285 274 264 268 268 231 208 210 202 231 180 108 293 295 286 280 307 317 292 289 272 261 256 256 283 346 1 333 319 327 329 306 294 292 286 284 284 282 277
34 51 41 38 36 25 33 34 350 10 26 355 350 317 320 320 306 336 347 349 337 297 287 281 236 245 245 228 285 316 320 309 265 248 270 268 249 269 312 343 360 358 355 335 315 359 11 21 342 298 281 286 289 303 358 205 169 109 306 343 93 98 83 238 267 298 297 290 300 285 269 274 302 320 331 336 327 321 328 337 329 321 323 324 325 327 326 318
19 28 47 41 36 35 44 61 355 348 338 354 351 333 332 323 357 9 340 322 316 276 282 303 248 244 261 261 311 291 278 302 232 256 285 242 241 301 316 334 350 356 352 320 326 6 359 301 350 326 319 331 330 343 3 355 24 71 288 294 231 251 296 277 258 281 283 261 242 251 271 277 304 326 322 319 321 318 316 316 310 305 307 310 316 321 323 325
15 28 32 28 40 49 63 93 70 360 354 10 334 313 336 342 352 346 319 297 313 308 270 288 282 281 291 298 319 305 278 248 219 274 292 235 265 300 313 331 339 335 305 300 298 329 312 267 279 320 288 296 305 298 313 339 344 319 292 290 270 257 286 311 298 290 288 286 270 243 271 290 296 302 306 312 318 317 313 312 311 307 299 299 307 313 316 319
28 34 1 5 39 61 73 74 51 23 23 24 319 293 6 347 321 336 331 326 356 353 318 278 294 305 347 7 355 325 300 261 244 288 298 287 282 291 323 331 326 309 303 306 299 197 141 268 210 211 231 247 262 262 268 316 312 295 294 294 288 285 292 296 278 258 255 277 281 266 271 289 288 287 298 315 309 305 305 307 310 311 309 305 305 308 312 313
58 78 353 354 18 45 54 44 33 16 341 10 312 281 5 330 301 340 347 355 359 355 326 270 5 42 23 9 356 312 314 318 303 291 291 300 300 298 321 325 309 295 309 321 321 135 90 297 228 224 242 254 263 271 282 298 289 282 288 291 287 289 294 279 253 255 262 283 278 266 254 265 276 280 282 281 280 284 287 290 295 301 303 302 302 303 305 307
65 120 115 62 346 33 31 2 1 344 318 334 278 278 340 342 7 2 339 333 348 3 11 304 17 37 17 8 359 307 320 324 304 297 323 326 326 324 326 316 291 301 346 1 8 79 115 265 238 223 251 262 266 276 282 282 275 274 278 280 280 281 278 263 255 255 252 246 255 260 253 248 264 276 272 262 264 266 269 273 278 286 292 295 296 299 300 301
75 122 126 76 215 194 235 317 324 318 307 295 278 341 354 18 36 9 315 328 334 349 26 304 339 4 353 349 352 292 301 306 292 304 339 323 316 319 319 304 293 355 32 17 349 37 149 266 259 247 274 280 276 279 284 281 277 276 270 266 266 267 261 252 252 252 248 243 249 261 262 257 262 273 272 264 259 261 267 271 274 277 280 285 290 294 294 294
54 70 321 7 60 261 330 336 334 328 322 322 271 322 348 11 28 342 289 270 275 301 360 330 319 333 327 319 310 256 257 273 276 288 311 314 313 315 310 297 310 342 352 341 324 306 221 266 293 302 294 283 275 280 284 275 271 272 269 260 253 254 254 250 249 253 255 257 258 262 266 267 262 263 267 267 263 263 267 268 267 269 270 275 281 285 287 288
45 51 3 12 5 346 356 342 346 20 342 353 134 271 344 360 344 335 290 234 233 261 76 25 325 322 316 302 284 263 269 281 277 285 296 292 285 286 284 282 297 309 308 295 284 273 227 263 296 304 279 275 278 279 277 279 279 269 260 253 247 245 247 249 246 238 236 245 255 258 260 263 259 255 264 271 267 257 255 259 263 266 269 271 273 276 281 284
43 94 39 31 12 357 2 334 347 55 255 255 139 194 285 275 319 344 323 255 254 219 218 336 325 316 306 293 283 284 300 303 295 291 289 280 273 270 266 265 268 272 271 270 270 248 222 256 277 255 264 280 280 269 280 298 287 270 257 246 249 253 252 251 247 236 229 229 241 252 249 252 263 267 271 277 276 264 252 256 261 265 268 270 271 272 275 279